Orange, MA

10:55 AM EST on December 13, 2019 (GMT -0500)
Orange Municipal

Weather History for KORE - November, 2019

Change the Weather History Date:

Tuesday, November 12, 2019

  Actual Average Record
Temperature  
Mean Temperature 30 °F -  
Max Temperature 39 °F 44 °F 63 °F (2014)
Min Temperature 19 °F 26 °F 17 °F (2001)
Degree Days  
Heating Degree Days 35    
Moisture  
Dew Point 27 °F    
Average Humidity 76    
Maximum Humidity 93    
Minimum Humidity 42    
Precipitation  
Precipitation 0.05 in - - ()
Sea Level Pressure  
Sea Level Pressure 29.82 in    
Wind  
Wind Speed 6 mph ()    
Max Wind Speed 18 mph    
Max Gust Speed 24 mph    
Visibility 8.0 miles    
Events Rain , Snow    
Averages and records for this station are not official NWS values.
T = Trace of Precipitation, MM = Missing Value Source: Averaged Metar Reports

Daily Weather History Graph

Daily Weather History Graph

Search for Another Location

Airport or City:

Astronomy

Nov. 12, 2019 Rise Set
Actual Time 6:36 AM EST 4:29 PM EST
Civil Twilight 6:06 AM EST 4:59 PM EST
Nautical Twilight 5:32 AM EST 5:33 PM EST
Astronomical Twilight 4:59 AM EST 6:06 PM EST
Moon 4:55 PM EST (11/12) 6:23 AM EST (11/12)
Length of Visible Light 10h 53m
Length of Day
9h 53m
Full, 100% of the Moon is Illuminated
Nov 12
Full
Nov 19
Last Quarter
Nov 26
New
Dec 4
First Quarter
Dec 12
Full

Hourly Weather History & Observations

Time (EST) Temp. Windchill Dew Point Humidity Pressure Visibility Wind Dir Wind Speed Gust Speed Precip Events Conditions
12:52 AM 39.0 °F 35.7 °F 35.1 °F 86% 29.83 in 10.0 mi East 4.6 mph - N/A   Overcast
1:52 AM 39.0 °F 35.7 °F 35.1 °F 86% 29.82 in 10.0 mi North 4.6 mph - N/A   Overcast
2:52 AM 39.0 °F 35.7 °F 35.1 °F 86% 29.78 in 10.0 mi NNE 4.6 mph - N/A   Overcast
3:24 AM 37.9 °F 35.5 °F 35.1 °F 89% 29.75 in 10.0 mi NE 3.5 mph - N/A   Overcast
3:52 AM 39.0 °F 36.8 °F 35.1 °F 86% 29.75 in 10.0 mi NNE 3.5 mph - N/A   Overcast
4:52 AM 37.9 °F 35.5 °F 35.1 °F 89% 29.73 in 7.0 mi North 3.5 mph - N/A   Overcast
5:04 AM 37.9 °F 35.5 °F 35.1 °F 89% 29.71 in 6.0 mi NNE 3.5 mph - N/A   Overcast
5:52 AM 37.9 °F 35.5 °F 35.1 °F 89% 29.69 in 5.0 mi NE 3.5 mph - 0.00 in Rain Light Rain
6:52 AM 37.9 °F 35.5 °F 35.1 °F 89% 29.70 in 3.0 mi South 3.5 mph - 0.00 in Rain Light Rain
7:08 AM 37.9 °F - 36.0 °F 93% 29.68 in 2.0 mi Calm Calm - 0.00 in Rain Light Rain
7:52 AM 37.9 °F 30.5 °F 36.0 °F 93% 29.70 in 1.8 mi NW 11.5 mph - 0.00 in Rain Light Rain
8:01 AM 37.9 °F 30.9 °F 36.0 °F 93% 29.71 in 2.5 mi West 10.4 mph - 0.00 in Rain Light Rain
8:08 AM 37.9 °F 32.1 °F 35.1 °F 89% 29.71 in 4.0 mi West 8.1 mph 18.4 mph 0.00 in Rain Light Rain
8:27 AM 37.9 °F 34.4 °F 36.0 °F 93% 29.72 in 9.0 mi WNW 4.6 mph - 0.01 in Rain Light Rain
8:37 AM 39.0 °F 35.7 °F 35.1 °F 86% 29.72 in 8.0 mi North 4.6 mph - 0.01 in Rain Light Rain
8:45 AM 37.9 °F 35.5 °F 35.1 °F 89% 29.73 in 6.0 mi NNE 3.5 mph - 0.01 in Rain Light Rain
8:52 AM 37.9 °F 34.4 °F 35.1 °F 89% 29.75 in 6.0 mi NW 4.6 mph - 0.01 in Rain Light Rain
9:36 AM 37.9 °F 32.7 °F 33.1 °F 83% 29.75 in 7.0 mi West 6.9 mph - 0.02 in Rain Light Rain
9:52 AM 37.0 °F 31.6 °F 33.1 °F 86% 29.76 in 4.0 mi WNW 6.9 mph - 0.03 in Rain Light Rain
9:59 AM 37.0 °F 31.0 °F 33.1 °F 86% 29.74 in 7.0 mi NW 8.1 mph - 0.01 in Rain Light Rain
10:19 AM 36.0 °F 29.0 °F 32.0 °F 86% 29.75 in 8.0 mi WNW 9.2 mph - 0.01 in Snow Light Snow
10:52 AM 36.0 °F 28.0 °F 30.0 °F 79% 29.77 in 10.0 mi WNW 11.5 mph - 0.01 in   Overcast
11:11 AM 35.1 °F 27.4 °F 28.9 °F 78% 29.76 in 10.0 mi WNW 10.4 mph - N/A   Overcast
11:52 AM 34.0 °F 26.6 °F 27.0 °F 75% 29.80 in 10.0 mi WNW 9.2 mph - N/A   Overcast
12:52 PM 32.0 °F 23.6 °F 25.0 °F 75% 29.83 in 10.0 mi NW 10.4 mph - 0.00 in   Overcast
1:52 PM 30.0 °F 22.4 °F 21.0 °F 69% 29.86 in 10.0 mi WNW 8.1 mph - N/A   Overcast
2:52 PM 30.0 °F 21.1 °F 19.0 °F 64% 29.88 in 10.0 mi WNW 10.4 mph - N/A   Overcast
3:52 PM 28.9 °F 18.6 °F 17.1 °F 61% 29.90 in 10.0 mi NW 12.7 mph - N/A   Scattered Clouds
4:52 PM 28.9 °F 19.8 °F 17.1 °F 61% 29.93 in 10.0 mi WNW 10.4 mph - N/A   Partly Cloudy
5:52 PM 28.0 °F 18.6 °F 15.1 °F 58% 29.96 in 10.0 mi WNW 10.4 mph 21.9 mph N/A   Clear
6:52 PM 26.1 °F 14.0 °F 9.0 °F 49% 29.98 in 10.0 mi WNW 15.0 mph - N/A   Clear
7:52 PM 25.0 °F 12.2 °F 6.1 °F 45% 30.01 in 10.0 mi WNW 16.1 mph 21.9 mph N/A   Clear
8:52 PM 23.0 °F 10.1 °F 3.0 °F 42% 30.04 in 10.0 mi WNW 15.0 mph 23.0 mph N/A   Clear
9:52 PM 21.9 °F 7.3 °F 1.9 °F 42% 30.04 in 10.0 mi WNW 18.4 mph 24.2 mph N/A   Clear
10:52 PM 21.0 °F 8.6 °F 1.9 °F 44% 30.05 in 10.0 mi WNW 12.7 mph 24.2 mph N/A   Clear
11:52 PM 19.9 °F 9.3 °F 1.9 °F 46% 30.06 in 10.0 mi WNW 9.2 mph 19.6 mph N/A   Clear